SCP
0 0 0 0 0 0 0 0 0 0 0 0 0 0 0 0 0 0 0 0 0 0 0 0 0 0 0 0 0 0 0 0 0 0 0 0 0 0 0 0 0 0 0
0 0 0 0 0 0 0 0 0 0 0 0 0 0 0 0 0 0 0 0 0 0 0 0 0 0 0 0 0 0 0 0 0 0 0 0 0 0 0 0 0 0 0
0 0 0 0 0 0 0 0 0 0 0 0 0 0 0 0 0 0 0 0 0 0 0 0 0 0 0 0 0 0 0 0 0 0 0 0 0 0 0 0 0 0 0
0 0 0 0 0 0 0 0 0 0 0 0 0 0 0 0 0 0 0 0 0 0 0 0 0 0 0 0 0 0 0 0 0 0 0 0 0 0 0 0 0 0 0
0 0 0 0 0 0 0 0 0 0 0 0 0 0 0 0 0 0 0 0 0 0 0 0 0 0 0 0 0 0 0 0 0 0 0 0 0 0 0 0 0 0 0
0 0 0 0 0 0 0 0 0 0 0 0 0 0 0 0 0 0 0 0 0 0 0 0 0 0 0 0 0 0 0 0 0 0 0 0 0 0 0 0 0 0 0
0 0 0 0 0 0 0 0 0 0 -0 0 0 0 0 0 0 0 0 0 0 0 0 0 0 0 0 0 0 0 0 0 0 0 0 0 0 0 0 0 0 0 0
0 0 0 0 0 0 0 0 0 0 0 0 0 0 0 0 0 0 0 0 0 0 0 0 0 0 0 0 0 0 0 0 0 0 0 0 0 0 0 0 0 0 0
0 0 0 0 0 0 0 0 0 -0 0 0 0 0 0 0 0 0 0 0 0 0 0 0 0 0 0 0 0 0 0 0 0 0 0 0 0 0 0 0 0 0 0
0 0 0 0 0 0 0 0 0 0 0 0 0 0 0 0 0 0 0 0 0 -0 0 0 0 0 0 0 0 0 0 0 0 0 0 0 0 0 0 0 0 0 0
0 0 0 0 0 0 0 0 0 0 0 0 0 0 0 0 0 0 0 0 0 -0 0 0 0 0 0 0 0 0 0 0 0 0 0 0 0 0 0 0 0 0 0
0 0 0 0 0 0 0 0 0 0 0 0 0 0 0 0 0 0 0 0 0 0 0 0 0 0 0 0 0 0 0 0 0 0 0 0 0 0 0 0 0 0 0
0 0 0 0 0 0 0 0 0 0 0 0 0 0 0 0 0 0 0 0 -0 0 0 0 0 0 0 0 0 0 0 0 0 0 0 0 0 0 0 0 0 0 0
0 0 0 0 0 0 0 0 0 0 0 0 0 0 0 0 0 0 0 0 0 0 0 0 0 -0 0 0 0 0 0 0 0 0 0 0 0 0 0 0 0 0 0
0 0 0 0 0 0 0 0 0 0 0 -0 -0 0 0 0 0 0 0 0 0 0 0 0 0 0 0 0 0 0 0 0 0 0 0 0 0 0 0 0 0 0 0
0 0 0 0 0 0 0 0 0 0 0 0 0 -0 0 0 0 0 0 0 0 0 0 0 0 0 0 0 0 0 0 0 0 0 0 0 0 0 0 0 0 0 0
0 0 0 0 0 0 0 0 0 0 0 0 -0 -0 0 0 0 0 0 0 0 0 0 0 0 0 0 0 0 0 -0 -0 -0 0 0 0 0 0 0 0 0 0 0
0 0 0 0 0 0 0 0 0 0 0 0 0 0 0 0 0 0 -0 -0 -0 -0 -0 -0 0 0 0 0 0 0 -0 -0 -0 -0 -0 -0 -0 0 0 0 0 0 0
0 0 0 0 0 0 0 0 0 0 0 0 0 0 0 0 0 -0 -0 0 0 -0 -0 0 0 0 0 0 0 -0 -0 -0 0 -0 0 -0 0 -0 -0 0 -0 -0 -0
0 0 0 0 -0 -0 -0 0 -0 -0 0 0 0 0 -0 -0 -0 -0 -0 0 0 0 0 0 0 0 0 0 0 0 -0 0 0 0 0 0 0 0 -0 0 -0 -0 -0
-0 -0 -0 -0 -0 -0 -0 0 -0 -0 -0 0 0 -0 -0 -0 0 0 0 0 0 0 0 0 0 0 0 0 0 -0 0 0 0 0 0 -0 0 0 0 0 0 -0 -0
0 -0 -0 -0 -0 0 -0 0 0 -0 -0 -0 0 0 0 0 0 0 0 0 0 0 0 0 0 0 0 0 -0 -0 -0 0 0 0 0 0 0 0 0 -0 -0 -0 -0
0 0 0 0 0 0 0 0 0 0 0 0 0 0 0 0 0 0 0 0 0 0 -0 0 0 0 0 0 0 0 0 0 0 0 0 0 0 0 0 0 0 -0 -0
0 0 0 0 0 0 0 0 0 0 0 0 0 0 0 0 0 0 0 0 0 0 0 0 0 0 0 0 0 0 0 0 0 0 0 0 0 0 0 0 0 0 0
0 0 0 0 0 0 0 0 0 0 0 0 0 0 0 0 0 0 0 0 0 0 0 0 0 0 0 0 0 0 0 0 0 0 0 0 0 0 0 0 0 0 0
0 0 0 0 0 0 0 0 0 0 0 0 0 0 0 0 0 0 0 0 0 0 0 0 0 0 0 0 0 0 0 0 0 0 0 0 0 0 0 0 0 0 0
Wind_Speed_500mb
20 23 26 26 23 28 31 39 46 41 45 49 55 52 45 42 42 35 16 6 2 11 5 5 12 18 15 16 22 26 33 41 40 37 37 35 35 34 33 31 29 34 41
22 20 20 21 23 30 39 38 37 39 42 47 46 41 39 34 33 28 6 6 8 9 13 15 19 17 22 21 24 26 30 40 47 35 32 28 28 33 32 32 31 31 33
18 18 23 31 38 34 35 31 32 35 39 39 34 32 33 27 24 16 6 7 13 12 12 15 16 18 27 28 29 23 28 24 21 21 19 22 19 24 25 26 29 30 34
26 34 36 42 43 34 29 30 33 35 36 33 27 25 27 24 19 13 10 13 13 14 15 18 16 25 29 29 22 14 10 15 16 19 20 26 23 25 27 30 32 31 34
35 37 24 30 30 29 24 21 25 30 31 27 26 26 25 15 15 14 13 15 17 16 17 16 19 23 28 28 15 13 15 20 21 25 30 31 31 31 31 33 36 38 42
21 26 26 27 31 22 25 27 26 28 23 21 21 20 19 12 8 13 15 16 19 21 22 20 20 25 26 18 11 13 18 21 25 26 27 26 24 23 24 27 30 31 37
27 33 30 31 32 24 26 25 26 25 22 20 20 9 9 16 11 10 16 20 22 26 28 26 27 28 21 17 14 16 21 23 27 32 35 30 23 26 29 30 37 40 43
26 24 27 28 36 33 26 23 27 31 24 15 19 17 3 13 8 7 13 15 16 20 19 16 18 16 13 14 17 19 26 31 33 30 31 31 29 28 24 28 32 32 34
40 33 29 26 20 21 22 26 30 25 24 14 14 9 5 5 19 7 9 16 12 9 4 9 15 14 14 17 20 25 31 32 32 35 38 33 26 24 25 26 28 31 34
39 34 29 26 18 22 20 16 21 23 22 17 16 14 13 15 3 9 10 15 15 9 11 10 10 12 13 17 22 27 32 35 31 35 45 32 24 24 23 27 29 32 33
33 33 31 30 26 24 21 18 15 18 20 22 20 18 15 13 14 13 22 27 16 13 14 14 15 16 22 21 23 27 32 31 37 36 45 33 27 25 26 35 29 28 30
37 31 30 32 32 28 33 33 25 19 18 24 23 20 18 13 10 14 23 29 30 26 18 14 17 19 24 29 25 26 29 25 30 32 40 40 31 28 25 35 34 32 29
33 32 29 23 26 26 30 33 37 25 23 25 24 20 15 13 15 12 17 27 37 39 27 15 17 19 25 30 26 31 27 18 23 29 37 38 30 29 25 30 32 33 32
29 27 25 23 25 20 31 30 23 26 25 25 23 16 12 16 15 11 16 23 39 39 29 18 14 26 26 26 25 27 23 18 21 28 33 27 26 25 24 28 32 34 35
28 23 24 26 24 20 25 18 27 29 22 19 18 6 12 16 16 17 19 22 27 25 31 15 33 31 32 21 27 27 26 19 14 22 19 26 28 28 34 31 29 29 30
22 21 24 26 22 18 24 17 25 18 18 16 14 12 17 18 19 22 20 22 27 29 24 29 33 23 19 22 28 28 25 13 10 12 19 24 31 30 31 34 31 29 28
22 23 25 24 20 15 19 18 11 12 10 8 7 12 17 19 17 19 20 23 26 27 22 25 20 16 23 25 27 28 15 9 15 14 22 30 37 40 36 35 38 31 30
21 18 19 21 16 13 11 8 8 2 2 3 8 13 13 11 12 17 22 24 27 15 19 22 17 20 23 25 26 19 11 20 13 17 24 32 39 44 43 44 43 41 35
16 12 14 20 15 11 12 12 14 13 12 14 16 13 10 11 15 19 18 22 21 15 15 12 15 20 22 21 22 18 20 13 14 17 21 28 36 41 44 43 46 49 45
6 12 16 21 24 23 20 19 20 23 22 21 20 17 16 17 19 19 20 15 15 17 5 6 15 19 19 19 10 14 8 13 13 17 22 30 34 36 38 44 45 47 52
14 13 17 23 22 20 20 20 18 16 19 17 15 15 13 18 22 20 11 8 15 8 4 9 14 18 16 16 7 10 8 8 14 27 23 28 32 39 44 52 53 52 53
8 12 17 17 18 18 18 17 17 15 11 4 5 8 13 14 11 10 4 11 5 4 3 14 13 18 22 18 12 15 10 16 29 31 25 22 29 33 39 46 54 59 56
23 20 18 14 11 17 19 19 18 16 11 9 9 8 8 8 7 9 14 14 13 9 10 12 12 17 19 26 24 15 13 22 25 32 34 29 29 27 33 37 44 51 58
25 24 20 15 16 15 15 18 18 15 15 19 18 12 7 14 25 19 15 13 12 8 10 12 11 13 16 18 18 19 21 22 22 34 41 34 38 32 26 29 35 42 50
28 29 32 26 23 27 24 26 22 21 22 23 25 24 29 26 20 21 21 21 21 23 25 22 18 15 13 14 17 19 20 24 28 25 40 37 41 40 31 35 33 39 42
36 36 37 37 35 34 33 30 28 28 28 29 24 24 25 25 23 23 24 29 30 31 31 29 25 22 20 19 18 18 17 23 30 21 40 38 41 45 32 39 35 36 40
Wind_Direction_500mb
245 252 262 274 279 290 298 304 307 310 313 318 320 321 320 322 323 334 328 308 251 142 182 272 293 301 294 302 286 294 288 295 282 287 290 287 285 278 286 292 285 274 272
254 272 283 286 293 296 297 298 299 301 311 316 317 316 315 319 323 334 305 218 193 208 224 261 284 305 311 319 306 297 283 274 286 291 291 292 285 276 275 275 270 272 273
265 269 284 290 293 292 292 295 302 312 316 314 308 308 307 314 316 329 267 242 217 242 262 283 303 315 315 313 310 302 287 289 296 301 302 293 288 280 281 277 269 266 271
281 280 273 295 287 282 284 297 308 320 329 321 313 305 298 300 298 308 272 263 265 268 280 288 305 316 316 319 317 317 308 301 308 308 301 287 292 288 286 277 273 272 271
291 281 299 283 286 283 280 300 319 329 334 318 309 307 302 283 283 295 289 280 274 273 276 286 302 309 314 308 305 317 338 333 323 306 310 301 293 296 297 297 291 289 284
309 295 287 285 282 273 314 319 325 330 333 320 312 306 292 255 318 298 292 284 281 286 293 302 303 317 315 311 307 333 331 347 344 346 329 319 316 310 292 283 283 282 282
319 303 286 272 272 299 300 327 321 322 323 315 304 307 283 217 343 302 295 286 286 287 291 296 306 309 307 319 316 322 334 344 342 338 327 321 313 303 295 294 287 279 276
321 318 306 292 292 304 300 292 330 318 307 306 306 324 242 218 306 298 346 340 316 297 304 311 321 320 324 322 321 320 322 329 332 331 330 325 313 306 306 299 295 290 287
323 316 304 297 299 300 284 299 300 293 291 293 292 312 307 254 326 241 353 348 325 315 349 338 333 320 326 326 331 333 329 333 328 327 326 325 323 306 302 304 304 300 291
331 327 303 298 312 297 284 282 294 296 288 290 280 271 289 293 326 322 322 343 331 310 285 297 313 336 336 330 332 343 341 331 320 324 329 329 324 320 319 325 316 306 299
330 326 325 315 304 287 273 266 275 296 287 281 274 268 271 270 287 298 312 335 350 315 296 289 316 317 320 336 325 345 327 327 328 333 324 337 334 326 321 316 322 316 311
327 322 317 314 307 298 287 274 255 259 273 280 274 256 263 255 271 288 307 328 335 343 325 299 295 296 318 334 334 327 327 317 328 331 331 337 329 321 317 316 316 317 316
330 332 326 312 315 309 290 282 275 258 268 272 275 254 257 267 284 287 309 331 323 335 335 310 302 319 328 337 327 335 334 326 329 333 334 335 330 330 315 310 312 315 315
331 342 342 332 332 332 315 291 271 259 270 265 253 235 262 267 294 292 305 311 318 325 334 347 348 342 325 325 328 338 340 331 311 332 333 345 344 339 331 324 319 315 313
320 326 335 332 320 325 346 311 281 267 274 234 213 225 262 268 281 286 289 295 319 318 319 341 329 319 319 334 342 346 342 332 318 335 359 357 347 360 7 348 339 329 322
313 320 333 336 325 323 339 340 338 245 234 217 238 231 267 276 279 278 286 301 312 305 296 317 321 335 338 336 343 344 341 349 345 45 25 13 14 11 9 9 2 357 348
325 327 325 324 327 333 15 20 18 100 132 190 214 263 275 277 278 276 290 303 313 310 299 327 345 344 338 343 343 344 354 31 81 56 37 28 24 20 15 13 15 10 10
326 319 314 296 303 322 350 351 28 96 17 340 306 297 289 288 280 285 303 314 323 316 311 334 343 341 345 340 351 359 96 113 83 57 40 31 25 20 22 22 20 17 13
314 335 348 359 357 340 317 311 303 306 307 319 325 324 317 306 298 310 319 333 340 343 327 330 342 351 344 345 8 110 112 97 69 38 23 17 16 16 18 21 25 24 20
301 324 338 336 314 311 304 291 284 285 289 293 295 295 296 306 310 321 323 323 320 330 360 360 348 346 341 341 27 136 108 71 47 26 14 11 15 16 21 22 24 24 24
336 341 330 320 327 334 328 320 308 290 270 270 274 291 291 309 320 327 352 315 333 9 35 7 352 349 346 353 64 150 91 81 27 15 27 28 35 36 33 32 27 24 22
26 347 340 359 24 19 25 39 47 53 56 28 313 299 311 331 355 7 14 8 43 85 26 3 7 8 14 26 95 129 101 10 6 10 13 13 18 23 25 29 28 28 23
41 27 28 44 39 60 54 52 45 36 18 343 319 330 26 30 38 49 64 68 62 47 19 6 18 34 67 81 89 86 23 6 15 21 13 18 7 2 5 17 22 20 22
43 35 42 54 54 42 33 15 19 31 35 48 62 71 68 67 91 88 70 62 49 43 18 30 60 80 91 69 49 35 28 24 27 23 18 10 10 11 10 4 9 9 14
45 47 54 60 49 50 49 53 54 56 59 64 70 72 92 107 85 74 53 52 61 59 67 65 77 80 57 38 29 28 22 21 18 16 18 19 15 11 18 16 13 10 10
55 58 61 64 58 54 51 49 56 58 64 69 73 79 87 90 76 69 69 70 75 72 68 65 63 58 52 47 44 42 23 23 11 7 11 9 18 16 5 14 15 12 10
Wind_Speed_850mb
20 23 26 26 23 28 31 39 46 41 45 49 55 52 45 42 42 35 16 6 2 11 5 5 12 18 15 16 22 26 33 41 40 37 37 35 35 34 33 31 29 34 41
22 20 20 21 23 30 39 38 37 39 42 47 46 41 39 34 33 28 6 6 8 9 13 15 19 17 22 21 24 26 30 40 47 35 32 28 28 33 32 32 31 31 33
18 18 23 31 38 34 35 31 32 35 39 39 34 32 33 27 24 16 6 7 13 12 12 15 16 18 27 28 29 23 28 24 21 21 19 22 19 24 25 26 29 30 34
26 34 36 42 43 34 29 30 33 35 36 33 27 25 27 24 19 13 10 13 13 14 15 18 16 25 29 29 22 14 10 15 16 19 20 26 23 25 27 30 32 31 34
35 37 24 30 30 29 24 21 25 30 31 27 26 26 25 15 15 14 13 15 17 16 17 16 19 23 28 28 15 13 15 20 21 25 30 31 31 31 31 33 36 38 42
21 26 26 27 31 22 25 27 26 28 23 21 21 20 19 12 8 13 15 16 19 21 22 20 20 25 26 18 11 13 18 21 25 26 27 26 24 23 24 27 30 31 37
27 33 30 31 32 24 26 25 26 25 22 20 20 9 9 16 11 10 16 20 22 26 28 26 27 28 21 17 14 16 21 23 27 32 35 30 23 26 29 30 37 40 43
26 24 27 28 36 33 26 23 27 31 24 15 19 17 3 13 8 7 13 15 16 20 19 16 18 16 13 14 17 19 26 31 33 30 31 31 29 28 24 28 32 32 34
40 33 29 26 20 21 22 26 30 25 24 14 14 9 5 5 19 7 9 16 12 9 4 9 15 14 14 17 20 25 31 32 32 35 38 33 26 24 25 26 28 31 34
39 34 29 26 18 22 20 16 21 23 22 17 16 14 13 15 3 9 10 15 15 9 11 10 10 12 13 17 22 27 32 35 31 35 45 32 24 24 23 27 29 32 33
33 33 31 30 26 24 21 18 15 18 20 22 20 18 15 13 14 13 22 27 16 13 14 14 15 16 22 21 23 27 32 31 37 36 45 33 27 25 26 35 29 28 30
37 31 30 32 32 28 33 33 25 19 18 24 23 20 18 13 10 14 23 29 30 26 18 14 17 19 24 29 25 26 29 25 30 32 40 40 31 28 25 35 34 32 29
33 32 29 23 26 26 30 33 37 25 23 25 24 20 15 13 15 12 17 27 37 39 27 15 17 19 25 30 26 31 27 18 23 29 37 38 30 29 25 30 32 33 32
29 27 25 23 25 20 31 30 23 26 25 25 23 16 12 16 15 11 16 23 39 39 29 18 14 26 26 26 25 27 23 18 21 28 33 27 26 25 24 28 32 34 35
28 23 24 26 24 20 25 18 27 29 22 19 18 6 12 16 16 17 19 22 27 25 31 15 33 31 32 21 27 27 26 19 14 22 19 26 28 28 34 31 29 29 30
22 21 24 26 22 18 24 17 25 18 18 16 14 12 17 18 19 22 20 22 27 29 24 29 33 23 19 22 28 28 25 13 10 12 19 24 31 30 31 34 31 29 28
22 23 25 24 20 15 19 18 11 12 10 8 7 12 17 19 17 19 20 23 26 27 22 25 20 16 23 25 27 28 15 9 15 14 22 30 37 40 36 35 38 31 30
21 18 19 21 16 13 11 8 8 2 2 3 8 13 13 11 12 17 22 24 27 15 19 22 17 20 23 25 26 19 11 20 13 17 24 32 39 44 43 44 43 41 35
16 12 14 20 15 11 12 12 14 13 12 14 16 13 10 11 15 19 18 22 21 15 15 12 15 20 22 21 22 18 20 13 14 17 21 28 36 41 44 43 46 49 45
6 12 16 21 24 23 20 19 20 23 22 21 20 17 16 17 19 19 20 15 15 17 5 6 15 19 19 19 10 14 8 13 13 17 22 30 34 36 38 44 45 47 52
14 13 17 23 22 20 20 20 18 16 19 17 15 15 13 18 22 20 11 8 15 8 4 9 14 18 16 16 7 10 8 8 14 27 23 28 32 39 44 52 53 52 53
8 12 17 17 18 18 18 17 17 15 11 4 5 8 13 14 11 10 4 11 5 4 3 14 13 18 22 18 12 15 10 16 29 31 25 22 29 33 39 46 54 59 56
23 20 18 14 11 17 19 19 18 16 11 9 9 8 8 8 7 9 14 14 13 9 10 12 12 17 19 26 24 15 13 22 25 32 34 29 29 27 33 37 44 51 58
25 24 20 15 16 15 15 18 18 15 15 19 18 12 7 14 25 19 15 13 12 8 10 12 11 13 16 18 18 19 21 22 22 34 41 34 38 32 26 29 35 42 50
28 29 32 26 23 27 24 26 22 21 22 23 25 24 29 26 20 21 21 21 21 23 25 22 18 15 13 14 17 19 20 24 28 25 40 37 41 40 31 35 33 39 42
36 36 37 37 35 34 33 30 28 28 28 29 24 24 25 25 23 23 24 29 30 31 31 29 25 22 20 19 18 18 17 23 30 21 40 38 41 45 32 39 35 36 40
Wind_Direction_850mb
245 252 262 274 279 290 298 304 307 310 313 318 320 321 320 322 323 334 328 308 251 142 182 272 293 301 294 302 286 294 288 295 282 287 290 287 285 278 286 292 285 274 272
254 272 283 286 293 296 297 298 299 301 311 316 317 316 315 319 323 334 305 218 193 208 224 261 284 305 311 319 306 297 283 274 286 291 291 292 285 276 275 275 270 272 273
265 269 284 290 293 292 292 295 302 312 316 314 308 308 307 314 316 329 267 242 217 242 262 283 303 315 315 313 310 302 287 289 296 301 302 293 288 280 281 277 269 266 271
281 280 273 295 287 282 284 297 308 320 329 321 313 305 298 300 298 308 272 263 265 268 280 288 305 316 316 319 317 317 308 301 308 308 301 287 292 288 286 277 273 272 271
291 281 299 283 286 283 280 300 319 329 334 318 309 307 302 283 283 295 289 280 274 273 276 286 302 309 314 308 305 317 338 333 323 306 310 301 293 296 297 297 291 289 284
309 295 287 285 282 273 314 319 325 330 333 320 312 306 292 255 318 298 292 284 281 286 293 302 303 317 315 311 307 333 331 347 344 346 329 319 316 310 292 283 283 282 282
319 303 286 272 272 299 300 327 321 322 323 315 304 307 283 217 343 302 295 286 286 287 291 296 306 309 307 319 316 322 334 344 342 338 327 321 313 303 295 294 287 279 276
321 318 306 292 292 304 300 292 330 318 307 306 306 324 242 218 306 298 346 340 316 297 304 311 321 320 324 322 321 320 322 329 332 331 330 325 313 306 306 299 295 290 287
323 316 304 297 299 300 284 299 300 293 291 293 292 312 307 254 326 241 353 348 325 315 349 338 333 320 326 326 331 333 329 333 328 327 326 325 323 306 302 304 304 300 291
331 327 303 298 312 297 284 282 294 296 288 290 280 271 289 293 326 322 322 343 331 310 285 297 313 336 336 330 332 343 341 331 320 324 329 329 324 320 319 325 316 306 299
330 326 325 315 304 287 273 266 275 296 287 281 274 268 271 270 287 298 312 335 350 315 296 289 316 317 320 336 325 345 327 327 328 333 324 337 334 326 321 316 322 316 311
327 322 317 314 307 298 287 274 255 259 273 280 274 256 263 255 271 288 307 328 335 343 325 299 295 296 318 334 334 327 327 317 328 331 331 337 329 321 317 316 316 317 316
330 332 326 312 315 309 290 282 275 258 268 272 275 254 257 267 284 287 309 331 323 335 335 310 302 319 328 337 327 335 334 326 329 333 334 335 330 330 315 310 312 315 315
331 342 342 332 332 332 315 291 271 259 270 265 253 235 262 267 294 292 305 311 318 325 334 347 348 342 325 325 328 338 340 331 311 332 333 345 344 339 331 324 319 315 313
320 326 335 332 320 325 346 311 281 267 274 234 213 225 262 268 281 286 289 295 319 318 319 341 329 319 319 334 342 346 342 332 318 335 359 357 347 360 7 348 339 329 322
313 320 333 336 325 323 339 340 338 245 234 217 238 231 267 276 279 278 286 301 312 305 296 317 321 335 338 336 343 344 341 349 345 45 25 13 14 11 9 9 2 357 348
325 327 325 324 327 333 15 20 18 100 132 190 214 263 275 277 278 276 290 303 313 310 299 327 345 344 338 343 343 344 354 31 81 56 37 28 24 20 15 13 15 10 10
326 319 314 296 303 322 350 351 28 96 17 340 306 297 289 288 280 285 303 314 323 316 311 334 343 341 345 340 351 359 96 113 83 57 40 31 25 20 22 22 20 17 13
314 335 348 359 357 340 317 311 303 306 307 319 325 324 317 306 298 310 319 333 340 343 327 330 342 351 344 345 8 110 112 97 69 38 23 17 16 16 18 21 25 24 20
301 324 338 336 314 311 304 291 284 285 289 293 295 295 296 306 310 321 323 323 320 330 360 360 348 346 341 341 27 136 108 71 47 26 14 11 15 16 21 22 24 24 24
336 341 330 320 327 334 328 320 308 290 270 270 274 291 291 309 320 327 352 315 333 9 35 7 352 349 346 353 64 150 91 81 27 15 27 28 35 36 33 32 27 24 22
26 347 340 359 24 19 25 39 47 53 56 28 313 299 311 331 355 7 14 8 43 85 26 3 7 8 14 26 95 129 101 10 6 10 13 13 18 23 25 29 28 28 23
41 27 28 44 39 60 54 52 45 36 18 343 319 330 26 30 38 49 64 68 62 47 19 6 18 34 67 81 89 86 23 6 15 21 13 18 7 2 5 17 22 20 22
43 35 42 54 54 42 33 15 19 31 35 48 62 71 68 67 91 88 70 62 49 43 18 30 60 80 91 69 49 35 28 24 27 23 18 10 10 11 10 4 9 9 14
45 47 54 60 49 50 49 53 54 56 59 64 70 72 92 107 85 74 53 52 61 59 67 65 77 80 57 38 29 28 22 21 18 16 18 19 15 11 18 16 13 10 10
55 58 61 64 58 54 51 49 56 58 64 69 73 79 87 90 76 69 69 70 75 72 68 65 63 58 52 47 44 42 23 23 11 7 11 9 18 16 5 14 15 12 10